Regional Weather Roundup
Issued by NWS

Home | Current Version | Previous Version | Graphics & Text | Print | Product List | Glossary On
Versions: 1 2 3 4 5 6 7 8 9 10 11 12 13 14 15 16 17 18 19 20 21 22 23 24 25 26 27 28 29 30 31 32 33 34 35 36 37 38 39 40 41 42 43 44 45 46 47 48 49 50
000
ASUS44 KMEG 201110
RWRTN
TENNESSEE HOURLY STATE WEATHER ROUNDUP
NATIONAL WEATHER SERVICE MEMPHIS TN
600 AM CDT SUN APR 20 2014

TNZ002-004-019-021-049-052-054-088>092-201200-
WEST TENNESSEE

CITY           SKY/WX    TMP DP  RH WIND       PRES   REMARKS
MEMPHIS INTL   PTCLDY    52  46  80 CALM      30.18R
NWS MEMPHIS      N/A     49 N/A N/A MISG        N/A
JACKSON        CLEAR     43  40  89 CALM      30.19R
DYERSBURG      CLEAR     50  37  62 CALM      30.20R
UNION CITY     CLEAR     46  45  93 CALM      30.18R
LEXINGTON      CLEAR     43  39  87 CALM      30.19R
SAVANNAH       CLEAR     41  41 100 CALM      30.20R
$$

TNZ008-025-027-028-033-062-065-066-201200-
NORTH MIDDLE TENNESSEE

CITY           SKY/WX    TMP DP  RH WIND       PRES   REMARKS
NASHVILLE      PTCLDY    47  43  86 CALM      30.20R
DICKSON        PTCLDY    50  37  62 CALM      30.19R
PORTLAND       PTCLDY    45  39  81 CALM      30.19R
CLARKSVILLE    CLEAR     44  41  89 W3        30.21R
SMYRNA         CLEAR     44  44 100 CALM      30.21R
MURFREESBORO   PTCLDY    45  42  89 CALM      30.19S
COOKEVILLE     CLEAR     39  37  93 CALM      30.21R
LIVINGSTON     CLEAR     53  38  56 S5        30.22
GALLATIN       PTCLDY    46  40  79 CALM      30.20R
CROSSVILLE     CLEAR     41  37  86 CALM      30.24R FOG
$$

TNZ061-075-076-078-094-096-097-201200-
SOUTH MIDDLE TENNESSEE

CITY           SKY/WX    TMP DP  RH WIND       PRES   REMARKS
LEWISBURG      PTCLDY    39  37  92 CALM      30.20R
FAYETTEVILLE   CLEAR     46  39  76 S8G15     30.21R
TULLAHOMA      CLEAR     41  39  93 CALM      30.22R
WINCHESTER     CLEAR     39  39 100 CALM      30.22R
MCMINNVILLE    CLEAR     41  41 100 CALM      30.21R
COLUMBIA       CLEAR     41  41 100 CALM      30.19R
SHELBYVILLE    PTCLDY    45  41  87 E6        30.21R
$$

TNZ017-018-042-046-047-201200-
NORTHEAST TENNESSEE

CITY           SKY/WX    TMP DP  RH WIND       PRES   REMARKS
TRI CITIES     PTCLDY    45  36  70 CALM      30.25R
ELIZABETHTON   SUNNY     39  36  87 CALM      30.25R
$$

TNZ012-013-036-069-073-074-201200-
CENTRAL EAST TENNESSEE

CITY           SKY/WX    TMP DP  RH WIND       PRES   REMARKS
KNOXVILLE      PTCLDY    45  44  97 E3        30.23R FOG
OAK RIDGE      CLEAR     44  41  89 CALM      30.25R
$$

TNZ083-085-099-201200-
SOUTHEAST TENNESSEE

CITY           SKY/WX    TMP DP  RH WIND       PRES   REMARKS
CHATTANOOGA    PTCLDY    44  42  93 CALM      30.22R
$$

SKY/WX REPORTED AS FAIR MEANS FEW OR NO CLOUDS BELOW
12 THOUSAND FEET.




USA.gov is the U.S. government's official web portal to all federal, state and local government web resources and services.